Monticello, NY

2:38 PM EST on November 11, 2019 (GMT -0500)
Sullivan County International

Weather History for KMSV - August, 2019

Change the Weather History Date:

Thursday, August 22, 2019

  Actual Average Record
Temperature  
Mean Temperature 72 °F -  
Max Temperature 81 °F 74 °F 84 °F (2003)
Min Temperature 64 °F 55 °F 44 °F (2004)
Cooling Degree Days 6    
Growing Degree Days 22 (Base 50)    
Moisture  
Dew Point 65 °F    
Average Humidity 92    
Maximum Humidity 100    
Minimum Humidity 66    
Precipitation  
Precipitation 0.17 in - - ()
Sea Level Pressure  
Sea Level Pressure 29.91 in    
Wind  
Wind Speed 2 mph (WNW)    
Max Wind Speed 8 mph    
Max Gust Speed -    
Visibility 5 miles    
Events Fog , Rain    
Averages and records for this station are not official NWS values.
T = Trace of Precipitation, MM = Missing Value Source: NWS Daily Summary

Daily Weather History Graph

Daily Weather History Graph

Search for Another Location

Airport or City:

Astronomy

Aug. 22, 2019 Rise Set
Actual Time 6:14 AM EDT 7:48 PM EDT
Civil Twilight 5:45 AM EDT 8:18 PM EDT
Nautical Twilight 5:09 AM EDT 8:53 PM EDT
Astronomical Twilight 4:31 AM EDT 9:30 PM EDT
Moon 11:31 PM EDT (8/22) 12:53 PM EDT (8/22)
Length of Visible Light 14h 32m
Length of Day
13h 34m
Waning Gibbous, 60% of the Moon is Illuminated
Aug 22
Waning Gibbous
Aug 23
Last Quarter
Aug 30
New
Sep 5
First Quarter
Sep 14
Full

Hourly Weather History & Observations

Time (EDT) Temp. Dew Point Humidity Pressure Visibility Wind Dir Wind Speed Gust Speed Precip Events Conditions
12:19 AM 66.2 °F 66.2 °F 100% 29.93 in 2.0 mi Calm Calm - N/A   Clear
12:56 AM 68.0 °F 66.9 °F 96% 29.90 in 7.0 mi Calm Calm - N/A   Clear
1:35 AM 66.2 °F 64.4 °F 94% 29.92 in 1.2 mi Calm Calm - N/A   Clear
1:37 AM 64.4 °F 64.4 °F 100% 29.92 in 0.8 mi Calm Calm - N/A   Clear
1:45 AM 64.4 °F 64.4 °F 100% 29.92 in 0.5 mi Calm Calm - N/A Fog Fog
1:50 AM 66.2 °F 64.4 °F 94% 29.92 in 1.0 mi Calm Calm - N/A   Clear
1:53 AM 66.2 °F 64.4 °F 94% 29.92 in 3.0 mi Calm Calm - N/A   Clear
1:56 AM 66.0 °F 64.9 °F 96% 29.89 in 6.0 mi Calm Calm - N/A   Clear
2:32 AM 66.2 °F 64.4 °F 94% 29.91 in 2.5 mi Calm Calm - N/A   Clear
2:56 AM 66.0 °F 64.9 °F 96% 29.88 in 4.0 mi North 3.5 mph - N/A   Clear
3:00 AM 66.2 °F 64.4 °F 94% 29.90 in 1.8 mi North 4.6 mph - N/A   Clear
3:04 AM 64.4 °F 64.4 °F 100% 29.90 in 1.0 mi NNW 3.5 mph - N/A   Mist
3:12 AM 64.4 °F 64.4 °F 100% 29.90 in 0.5 mi Calm Calm - N/A Fog Fog
3:21 AM 66.2 °F 64.4 °F 94% 29.90 in 1.0 mi Calm Calm - N/A   Mist
3:24 AM 64.4 °F 64.4 °F 100% 29.90 in 2.5 mi Calm Calm - N/A   Scattered Clouds
3:31 AM 64.4 °F 64.4 °F 100% 29.89 in 3.0 mi Calm Calm - N/A   Scattered Clouds
3:36 AM 64.4 °F 64.4 °F 100% 29.90 in 1.8 mi Calm Calm - N/A   Partly Cloudy
3:38 AM 64.4 °F 64.4 °F 100% 29.90 in 0.8 mi Calm Calm - N/A   Mist
3:49 AM 64.4 °F 64.4 °F 100% 29.89 in 1.2 mi Calm Calm - N/A   Partly Cloudy
3:56 AM 64.9 °F 64.0 °F 97% 29.87 in 1.8 mi Calm Calm - N/A   Clear
4:04 AM 64.4 °F 62.6 °F 94% 29.89 in 1.0 mi NW 3.5 mph - N/A   Mist
4:12 AM 64.4 °F 64.4 °F 100% 29.89 in 0.8 mi NW 3.5 mph - N/A   Mist
4:16 AM 64.4 °F 64.4 °F 100% 29.89 in 1.2 mi NW 3.5 mph - N/A   Partly Cloudy
4:21 AM 64.4 °F 64.4 °F 100% 29.88 in 3.0 mi Calm Calm - N/A   Partly Cloudy
4:56 AM 66.0 °F 64.9 °F 96% 29.86 in 3.0 mi SW 3.5 mph - N/A   Partly Cloudy
5:01 AM 66.2 °F 64.4 °F 94% 29.89 in 1.5 mi WSW 3.5 mph - N/A   Scattered Clouds
5:04 AM 64.4 °F 64.4 °F 100% 29.89 in 0.8 mi WSW 3.5 mph - N/A   Mostly Cloudy
5:12 AM 64.4 °F 64.4 °F 100% 29.89 in 0.5 mi WSW 4.6 mph - N/A Fog Fog
5:14 AM 64.4 °F 64.4 °F 100% 29.89 in 0.8 mi WSW 4.6 mph - N/A   Mist
5:16 AM 64.4 °F 64.4 °F 100% 29.89 in 1.5 mi WSW 4.6 mph - N/A   Scattered Clouds
5:19 AM 64.4 °F 64.4 °F 100% 29.89 in 3.0 mi SW 3.5 mph - N/A   Scattered Clouds
5:49 AM 64.4 °F 64.4 °F 100% 29.90 in 1.8 mi WNW 4.6 mph - N/A   Clear
5:56 AM 64.0 °F 63.0 °F 96% 29.88 in 2.0 mi NW 4.6 mph - N/A   Clear
6:06 AM 64.4 °F 64.4 °F 100% 29.91 in 3.0 mi WNW 4.6 mph - N/A   Clear
6:56 AM 66.0 °F 64.9 °F 96% 29.91 in 6.0 mi WNW 6.9 mph - N/A   Partly Cloudy
7:56 AM 69.1 °F 66.9 °F 93% 29.92 in 9.0 mi West 5.8 mph - N/A   Partly Cloudy
8:56 AM 72.0 °F 66.9 °F 84% 29.92 in 10.0 mi West 5.8 mph - N/A   Partly Cloudy
9:28 AM 73.4 °F 66.2 °F 78% 29.95 in 10.0 mi West 4.6 mph - N/A   Mostly Cloudy
9:56 AM 75.0 °F 66.9 °F 76% 29.93 in 10.0 mi West 6.9 mph - N/A   Mostly Cloudy
10:25 AM 75.2 °F 66.2 °F 73% 29.96 in 10.0 mi West 8.1 mph - N/A   Partly Cloudy
10:56 AM 75.9 °F 66.0 °F 71% 29.94 in 10.0 mi WNW 8.1 mph - N/A   Overcast
11:56 AM 78.1 °F 66.9 °F 68% 29.93 in 10.0 mi West 8.1 mph - N/A   Scattered Clouds
12:56 PM 79.0 °F 66.9 °F 66% 29.92 in 10.0 mi West 8.1 mph - N/A   Mostly Cloudy
1:56 PM 77.0 °F 66.9 °F 71% 29.92 in 7.0 mi West 8.1 mph - 0.01 in Rain Rain
2:56 PM 69.1 °F 66.0 °F 90% 29.94 in 4.0 mi WNW 6.9 mph - 0.16 in Rain Heavy Rain
3:04 PM 69.8 °F 68.0 °F 94% 29.95 in 8.0 mi NNW 4.6 mph - 0.00 in Rain Light Rain
3:56 PM 73.9 °F 70.0 °F 87% 29.93 in 10.0 mi West 3.5 mph - 0.00 in   Overcast
4:56 PM 77.0 °F 68.0 °F 74% 29.90 in 10.0 mi WNW 4.6 mph - N/A   Scattered Clouds
5:56 PM 73.9 °F 68.0 °F 82% 29.92 in 9.0 mi West 5.8 mph - 0.00 in Rain Light Rain
6:56 PM 72.0 °F 69.1 °F 91% 29.93 in 10.0 mi Calm Calm - 0.00 in Rain Light Rain
7:56 PM 71.1 °F 69.1 °F 93% 29.93 in 10.0 mi West 4.6 mph - 0.00 in   Overcast
8:56 PM 70.0 °F 66.0 °F 87% 29.95 in 10.0 mi WNW 4.6 mph - N/A   Partly Cloudy
9:56 PM 68.0 °F 63.0 °F 84% 29.95 in 10.0 mi WNW 3.5 mph - N/A   Mostly Cloudy
10:56 PM 66.9 °F 62.1 °F 84% 29.97 in 10.0 mi NW 4.6 mph - N/A   Overcast
11:56 PM 64.9 °F 60.1 °F 84% 29.98 in 10.0 mi NNW 5.8 mph - N/A   Mostly Cloudy